EZY68GL EGGP-EGNS

Flight info

Callsign EZY68GL
Flight time 0h 21m
Altitude 16000
Route WAL M146 LUSOD DCT IOM
Aircraft A319/M-SDE3FGHIRWY/LB1

Departure

Time 2026-04-25 15:49
Airport Liverpool John Lennon Airport (EGGP)

Arrival

Time 2026-04-25 16:11
Airport Isle of Man Airport (EGNS)
Time Latitude Longitude Altitude Speed Heading
2026-04-25 15:28 53.33634 -2.85196 87 ft 0 kts 264°
2026-04-25 15:41 53.33635 -2.85177 87 ft 2 kts 264°
2026-04-25 15:42 53.33637 -2.85152 87 ft 2 kts 265°
2026-04-25 15:42 53.33638 -2.85127 88 ft 2 kts 264°
2026-04-25 15:42 53.33639 -2.85110 88 ft 0 kts 264°
2026-04-25 15:42 53.33643 -2.85088 88 ft 2 kts 226°
2026-04-25 15:43 53.33656 -2.85076 88 ft 1 kts 186°
2026-04-25 15:43 53.33662 -2.85076 88 ft 1 kts 169°
2026-04-25 15:43 53.33666 -2.85077 88 ft 0 kts 175°
2026-04-25 15:46 53.33650 -2.85074 88 ft 5 kts 175°
2026-04-25 15:46 53.33591 -2.85067 87 ft 11 kts 175°
2026-04-25 15:46 53.33530 -2.84982 87 ft 15 kts 85°
2026-04-25 15:46 53.33540 -2.84785 88 ft 18 kts 86°
2026-04-25 15:47 53.33550 -2.84559 89 ft 20 kts 84°
2026-04-25 15:47 53.33564 -2.84300 90 ft 22 kts 86°
2026-04-25 15:47 53.33575 -2.84038 91 ft 22 kts 85°
2026-04-25 15:47 53.33587 -2.83770 90 ft 23 kts 86°
2026-04-25 15:48 53.33600 -2.83506 90 ft 18 kts 85°
2026-04-25 15:48 53.33564 -2.83317 89 ft 18 kts 149°
2026-04-25 15:48 53.33456 -2.83297 89 ft 11 kts 206°
2026-04-25 15:48 53.33433 -2.83404 89 ft 10 kts 267°
2026-04-25 15:49 53.33417 -2.83788 90 ft 72 kts 265°
2026-04-25 15:49 53.33356 -2.85069 88 ft 146 kts 266°
2026-04-25 15:49 53.33284 -2.86837 710 ft 154 kts 266°
2026-04-25 15:49 53.33187 -2.88592 1508 ft 157 kts 265°
2026-04-25 15:50 53.33079 -2.90424 2225 ft 164 kts 265°
2026-04-25 15:50 53.33124 -2.92380 2797 ft 179 kts 285°
2026-04-25 15:50 53.33683 -2.94333 3404 ft 194 kts 304°
2026-04-25 15:50 53.34418 -2.96366 3851 ft 219 kts 298°
2026-04-25 15:51 53.35180 -2.98843 3949 ft 258 kts 297°
2026-04-25 15:51 53.35728 -3.00738 4327 ft 274 kts 296°
2026-04-25 15:51 53.36779 -3.04530 5892 ft 272 kts 295°
2026-04-25 15:51 53.37544 -3.07349 6981 ft 273 kts 295°
2026-04-25 15:52 53.38321 -3.10231 7987 ft 277 kts 295°
2026-04-25 15:52 53.39246 -3.13088 8985 ft 281 kts 304°
2026-04-25 15:52 53.40445 -3.15592 9972 ft 284 kts 313°
2026-04-25 15:52 53.41823 -3.17981 10884 ft 290 kts 314°
2026-04-25 15:53 53.43283 -3.20442 11500 ft 307 kts 315°
2026-04-25 15:53 53.44802 -3.23000 12323 ft 316 kts 314°
2026-04-25 15:53 53.46354 -3.25628 13262 ft 320 kts 314°
2026-04-25 15:53 53.47910 -3.28276 14133 ft 324 kts 314°
2026-04-25 15:54 53.49506 -3.31000 15015 ft 328 kts 314°
2026-04-25 15:54 53.51086 -3.33706 15677 ft 331 kts 314°
2026-04-25 15:54 53.52710 -3.36490 16087 ft 332 kts 314°
2026-04-25 15:54 53.54316 -3.39248 16202 ft 332 kts 314°
2026-04-25 15:55 53.55924 -3.42012 16204 ft 332 kts 314°
2026-04-25 15:55 53.57493 -3.44879 16211 ft 332 kts 310°
2026-04-25 15:55 53.58927 -3.47898 16195 ft 332 kts 306°
2026-04-25 15:55 53.60297 -3.51098 16044 ft 341 kts 305°
2026-04-25 15:56 53.61676 -3.54383 15713 ft 350 kts 304°
2026-04-25 15:56 53.63098 -3.57780 15347 ft 365 kts 304°
2026-04-25 15:56 53.64572 -3.61296 14978 ft 369 kts 305°
2026-04-25 15:56 53.66059 -3.64841 14598 ft 370 kts 305°
2026-04-25 15:57 53.67530 -3.68363 14225 ft 371 kts 304°
2026-04-25 15:57 53.69030 -3.71966 13850 ft 373 kts 304°
2026-04-25 15:57 53.70522 -3.75548 13482 ft 374 kts 304°
2026-04-25 15:57 53.72009 -3.79121 13091 ft 375 kts 304°
2026-04-25 15:58 53.73497 -3.82699 12748 ft 376 kts 304°
2026-04-25 15:58 53.74979 -3.86269 12353 ft 367 kts 304°
2026-04-25 15:58 53.76429 -3.89759 11975 ft 357 kts 304°
2026-04-25 15:58 53.77831 -3.93142 11605 ft 348 kts 304°
2026-04-25 15:59 53.79187 -3.96417 11256 ft 340 kts 304°
2026-04-25 15:59 53.80530 -3.99668 10900 ft 331 kts 304°
2026-04-25 15:59 53.81822 -4.02797 10606 ft 322 kts 304°
2026-04-25 15:59 53.83084 -4.05856 10312 ft 314 kts 304°
2026-04-25 16:00 53.84303 -4.08820 9995 ft 306 kts 304°
2026-04-25 16:00 53.85109 -4.10779 9807 ft 305 kts 304°
2026-04-25 16:00 53.86732 -4.14731 9405 ft 305 kts 304°
2026-04-25 16:00 53.87936 -4.17666 9109 ft 305 kts 304°
2026-04-25 16:01 53.89146 -4.20619 8800 ft 305 kts 304°
2026-04-25 16:01 53.90343 -4.23543 8500 ft 305 kts 304°
2026-04-25 16:01 53.91562 -4.26529 8180 ft 305 kts 304°
2026-04-25 16:01 53.92767 -4.29485 7876 ft 305 kts 305°
2026-04-25 16:02 53.93918 -4.32471 7595 ft 306 kts 301°
2026-04-25 16:02 53.94914 -4.35675 7284 ft 307 kts 295°
2026-04-25 16:02 53.95755 -4.39006 6970 ft 306 kts 292°
2026-04-25 16:02 53.96544 -4.42349 6663 ft 306 kts 292°
2026-04-25 16:03 53.97328 -4.45672 6365 ft 306 kts 292°
2026-04-25 16:03 53.98125 -4.49020 6212 ft 306 kts 292°
2026-04-25 16:03 53.98923 -4.52341 6176 ft 306 kts 292°
2026-04-25 16:03 53.99522 -4.55789 6164 ft 306 kts 276°
2026-04-25 16:04 53.99510 -4.59405 6165 ft 304 kts 267°
2026-04-25 16:04 53.99339 -4.62924 5980 ft 293 kts 265°
2026-04-25 16:04 53.99145 -4.66329 5774 ft 282 kts 264°
2026-04-25 16:04 53.98956 -4.69600 5608 ft 272 kts 264°
2026-04-25 16:05 53.98776 -4.72717 5379 ft 265 kts 264°
2026-04-25 16:05 53.98598 -4.75839 4914 ft 266 kts 264°
2026-04-25 16:05 53.98255 -4.82004 3910 ft 260 kts 265°
2026-04-25 16:06 53.98311 -4.85013 3416 ft 256 kts 287°
2026-04-25 16:06 53.99250 -4.87481 3133 ft 245 kts 319°
2026-04-25 16:06 54.00688 -4.88845 2866 ft 236 kts 344°
2026-04-25 16:06 54.02294 -4.89044 2581 ft 229 kts
2026-04-25 16:07 54.03753 -4.88128 2291 ft 222 kts 33°
2026-04-25 16:07 54.04531 -4.87056 2105 ft 216 kts 44°
2026-04-25 16:07 54.05885 -4.84727 1990 ft 195 kts 47°
2026-04-25 16:07 54.06519 -4.82887 2052 ft 173 kts 73°
2026-04-25 16:08 54.06725 -4.81011 1995 ft 149 kts 83°
2026-04-25 16:08 54.06820 -4.79342 1940 ft 137 kts 87°
2026-04-25 16:08 54.06829 -4.77735 1792 ft 136 kts 91°
2026-04-25 16:08 54.06838 -4.76118 1598 ft 135 kts 88°
2026-04-25 16:09 54.06900 -4.74533 1436 ft 134 kts 85°
2026-04-25 16:09 54.07016 -4.72962 1330 ft 134 kts 81°
2026-04-25 16:09 54.07176 -4.71398 1134 ft 134 kts 79°
2026-04-25 16:09 54.07390 -4.69846 946 ft 133 kts 78°
2026-04-25 16:10 54.07592 -4.68315 745 ft 132 kts 78°
2026-04-25 16:10 54.07780 -4.66806 490 ft 131 kts 79°
2026-04-25 16:10 54.07969 -4.65287 243 ft 130 kts 79°
2026-04-25 16:10 54.08156 -4.63775 50 ft 129 kts 79°
2026-04-25 16:11 54.08321 -4.62431 8 ft 84 kts 77°
2026-04-25 16:11 54.08412 -4.61723 9 ft 42 kts 77°
2026-04-25 16:11 54.08464 -4.61435 8 ft 16 kts 31°
2026-04-25 16:11 54.08535 -4.61542 8 ft 17 kts 274°
2026-04-25 16:12 54.08547 -4.61749 8 ft 17 kts 274°
2026-04-25 16:12 54.08544 -4.61964 8 ft 18 kts 258°
2026-04-25 16:12 54.08517 -4.62180 8 ft 19 kts 257°
2026-04-25 16:12 54.08497 -4.62331 8 ft 19 kts 257°
2026-04-25 16:13 54.08460 -4.62639 8 ft 20 kts 259°
2026-04-25 16:13 54.08428 -4.62879 8 ft 20 kts 256°
2026-04-25 16:13 54.08398 -4.63121 8 ft 21 kts 267°
2026-04-25 16:13 54.08451 -4.63335 8 ft 17 kts 318°
2026-04-25 16:14 54.08551 -4.63357 8 ft 9 kts 353°
2026-04-25 16:14 54.08590 -4.63316 9 ft 0 kts 43°